{"data":{"norad_id":69701,"intl_designator":"2026-146A","name":"STRIX-8","alt_names":[],"object_type":"PAYLOAD","status":"ACTIVE","operator":null,"country":"JPN","launch_date":"2026-06-26","launch_site_code":"RLLB","launch_vehicle":null,"mission":null,"orbit_class":"UNKNOWN","rcs_meters":null,"size_class":null,"mass_kg":null,"dimensions":null,"purposes":[],"wikipedia_slug":null,"has_3d_model":false,"image_url":null,"decayed_at":null,"tle_current":{"epoch":"2026-09-20T03:07:19.579008Z","epoch_age_seconds":58595,"freshness":"FRESH","line1":"1 69701U 26146A   26263.13008772  .00002719  00000+0  20233-3 0  9990","line2":"2 69701  41.9910   2.1736 0005774 112.8404 247.3033 15.04858323 12869","mean_motion":15.04858323,"eccentricity":0.0005774,"inclination_deg":41.991,"raan_deg":2.1736,"arg_perigee_deg":112.8404,"mean_anomaly_deg":247.3033,"bstar":0.00020233,"rev_number":1286,"period_min":95.69007115097,"perigee_km":547.9391824828,"apogee_km":555.94203610601,"semimajor_km":6930.0776092944,"source":"CELESTRAK","updated_at":"2026-09-20T09:00:25.048470Z"}}}